owner,sensor,date,latitude,longitude,vertical_datum,sea_water_practical_salinity,qcFlag 
TABS,ioos:station:wmo:42049:1,2011-05-01T00:00:00Z,28.3507,-96.0058,2.0,27.7767,11111222 
TABS,ioos:station:wmo:42049:1,2011-05-01T00:30:00Z,28.3507,-96.0058,2.0,27.7888,11111222 
TABS,ioos:station:wmo:42049:1,2011-05-01T01:00:00Z,28.3507,-96.0058,2.0,27.7957,11111222 
TABS,ioos:station:wmo:42049:1,2011-05-01T01:30:00Z,28.3507,-96.0058,2.0,27.7942,11111222 
TABS,ioos:station:wmo:42049:1,2011-05-01T02:00:00Z,28.3507,-96.0058,2.0,27.7868,11111222 
TABS,ioos:station:wmo:42049:1,2011-05-01T02:30:00Z,28.3507,-96.0058,2.0,27.7871,11111222 
TABS,ioos:station:wmo:42049:1,2011-05-01T03:00:00Z,28.3507,-96.0058,2.0,27.7943,11111222 
TABS,ioos:station:wmo:42049:1,2011-05-01T03:30:00Z,28.3507,-96.0058,2.0,27.7964,11111222 
TABS,ioos:station:wmo:42049:1,2011-05-01T04:00:00Z,28.3507,-96.0058,2.0,27.7625,11111222 
TABS,ioos:station:wmo:42049:1,2011-05-01T04:30:00Z,28.3507,-96.0058,2.0,27.6586,11111222 
TABS,ioos:station:wmo:42049:1,2011-05-01T05:00:00Z,28.3507,-96.0058,2.0,27.6292,11111222 
TABS,ioos:station:wmo:42049:1,2011-05-01T05:30:00Z,28.3507,-96.0058,2.0,27.551,11111222 
TABS,ioos:station:wmo:42049:1,2011-05-01T06:00:00Z,28.3507,-96.0058,2.0,27.5356,11111222 
TABS,ioos:station:wmo:42049:1,2011-05-01T06:30:00Z,28.3507,-96.0058,2.0,27.5793,11111222 
TABS,ioos:station:wmo:42049:1,2011-05-01T07:00:00Z,28.3507,-96.0058,2.0,27.5612,11111222 
TABS,ioos:station:wmo:42049:1,2011-05-01T07:30:00Z,28.3507,-96.0058,2.0,27.4845,11111222 
TABS,ioos:station:wmo:42049:1,2011-05-01T08:00:00Z,28.3507,-96.0058,2.0,27.3794,11111222 
TABS,ioos:station:wmo:42049:1,2011-05-01T08:30:00Z,28.3507,-96.0058,2.0,27.3505,11111222 
TABS,ioos:station:wmo:42049:1,2011-05-01T09:00:00Z,28.3507,-96.0058,2.0,27.3375,11111222 
TABS,ioos:station:wmo:42049:1,2011-05-01T09:30:00Z,28.3507,-96.0058,2.0,27.3261,11111222 
TABS,ioos:station:wmo:42049:1,2011-05-01T10:00:00Z,28.3507,-96.0058,2.0,27.3118,11111222 
TABS,ioos:station:wmo:42049:1,2011-05-01T10:30:00Z,28.3507,-96.0058,2.0,27.306,11111222 
TABS,ioos:station:wmo:42049:1,2011-05-01T11:00:00Z,28.3507,-96.0058,2.0,27.3122,11111222 
TABS,ioos:station:wmo:42049:1,2011-05-01T11:30:00Z,28.3507,-96.0058,2.0,27.3081,11111222 
TABS,ioos:station:wmo:42049:1,2011-05-01T12:00:00Z,28.3507,-96.0058,2.0,27.3147,11111222 
TABS,ioos:station:wmo:42049:1,2011-05-01T12:30:00Z,28.3507,-96.0058,2.0,27.3078,11111222 
TABS,ioos:station:wmo:42049:1,2011-05-01T13:00:00Z,28.3507,-96.0058,2.0,27.3077,11111222 
TABS,ioos:station:wmo:42049:1,2011-05-01T13:30:00Z,28.3507,-96.0058,2.0,27.2964,11111222 
TABS,ioos:station:wmo:42049:1,2011-05-01T14:00:00Z,28.3507,-96.0058,2.0,27.2989,11111222 
TABS,ioos:station:wmo:42049:1,2011-05-01T14:30:00Z,28.3507,-96.0058,2.0,27.2933,11111222 
TABS,ioos:station:wmo:42049:1,2011-05-01T15:00:00Z,28.3507,-96.0058,2.0,27.2927,11111222 
TABS,ioos:station:wmo:42049:1,2011-05-01T15:30:00Z,28.3507,-96.0058,2.0,27.295,11111222 
TABS,ioos:station:wmo:42049:1,2011-05-01T16:00:00Z,28.3507,-96.0058,2.0,27.2973,11111222 
TABS,ioos:station:wmo:42049:1,2011-05-01T16:30:00Z,28.3507,-96.0058,2.0,27.3027,11111222 
TABS,ioos:station:wmo:42049:1,2011-05-01T17:00:00Z,28.3507,-96.0058,2.0,27.2903,11111222 
TABS,ioos:station:wmo:42049:1,2011-05-01T17:30:00Z,28.3507,-96.0058,2.0,27.2879,11111222 
TABS,ioos:station:wmo:42049:1,2011-05-01T18:00:00Z,28.3507,-96.0058,2.0,27.2844,11111222 
TABS,ioos:station:wmo:42049:1,2011-05-01T18:30:00Z,28.3507,-96.0058,2.0,27.2722,11111222 
TABS,ioos:station:wmo:42049:1,2011-05-01T19:00:00Z,28.3507,-96.0058,2.0,27.2595,11111222 
TABS,ioos:station:wmo:42049:1,2011-05-01T19:30:00Z,28.3507,-96.0058,2.0,27.2458,11111222 
TABS,ioos:station:wmo:42049:1,2011-05-01T20:00:00Z,28.3507,-96.0058,2.0,27.2435,11111222 
TABS,ioos:station:wmo:42049:1,2011-05-01T20:30:00Z,28.3507,-96.0058,2.0,27.234,11111222 
TABS,ioos:station:wmo:42049:1,2011-05-01T21:00:00Z,28.3507,-96.0058,2.0,27.2304,11111222 
TABS,ioos:station:wmo:42049:1,2011-05-01T21:30:00Z,28.3507,-96.0058,2.0,27.2342,11111222 
TABS,ioos:station:wmo:42049:1,2011-05-01T22:00:00Z,28.3507,-96.0058,2.0,27.2701,11111222 
TABS,ioos:station:wmo:42049:1,2011-05-01T22:30:00Z,28.3507,-96.0058,2.0,27.3596,11111222 
TABS,ioos:station:wmo:42049:1,2011-05-01T23:00:00Z,28.3507,-96.0058,2.0,27.4389,11111222 
TABS,ioos:station:wmo:42049:1,2011-05-01T23:30:00Z,28.3507,-96.0058,2.0,27.6426,11111222 
TABS,ioos:station:wmo:42049:1,2011-05-02T00:00:00Z,28.3507,-96.0058,2.0,28.7752,11111222 
TABS,ioos:station:wmo:42049:1,2011-05-02T00:30:00Z,28.3507,-96.0058,2.0,28.5202,11111222 
TABS,ioos:station:wmo:42049:1,2011-05-02T01:00:00Z,28.3507,-96.0058,2.0,28.553,11111222 
TABS,ioos:station:wmo:42049:1,2011-05-02T01:30:00Z,28.3507,-96.0058,2.0,28.3468,11111222 
TABS,ioos:station:wmo:42049:1,2011-05-02T02:00:00Z,28.3507,-96.0058,2.0,28.2529,11111222 
TABS,ioos:station:wmo:42049:1,2011-05-02T02:30:00Z,28.3507,-96.0058,2.0,28.0063,11111222 
TABS,ioos:station:wmo:42049:1,2011-05-02T03:00:00Z,28.3507,-96.0058,2.0,27.8016,11111222 
TABS,ioos:station:wmo:42049:1,2011-05-02T03:30:00Z,28.3507,-96.0058,2.0,27.82,11111222 
TABS,ioos:station:wmo:42049:1,2011-05-02T04:00:00Z,28.3507,-96.0058,2.0,27.594,11111222 
TABS,ioos:station:wmo:42049:1,2011-05-02T04:30:00Z,28.3507,-96.0058,2.0,27.5638,11111222 
TABS,ioos:station:wmo:42049:1,2011-05-02T05:00:00Z,28.3507,-96.0058,2.0,27.4816,11111222 
TABS,ioos:station:wmo:42049:1,2011-05-02T05:30:00Z,28.3507,-96.0058,2.0,27.4576,11111222 
TABS,ioos:station:wmo:42049:1,2011-05-02T06:00:00Z,28.3507,-96.0058,2.0,27.4702,11111222 
TABS,ioos:station:wmo:42049:1,2011-05-02T06:30:00Z,28.3507,-96.0058,2.0,27.3922,11111222 
TABS,ioos:station:wmo:42049:1,2011-05-02T07:00:00Z,28.3507,-96.0058,2.0,27.315,11111222 
TABS,ioos:station:wmo:42049:1,2011-05-02T07:30:00Z,28.3507,-96.0058,2.0,27.1141,11111222 
TABS,ioos:station:wmo:42049:1,2011-05-02T08:00:00Z,28.3507,-96.0058,2.0,26.811,11111222 
TABS,ioos:station:wmo:42049:1,2011-05-02T08:30:00Z,28.3507,-96.0058,2.0,26.6443,11111222 
TABS,ioos:station:wmo:42049:1,2011-05-02T09:00:00Z,28.3507,-96.0058,2.0,26.5835,11111222 
TABS,ioos:station:wmo:42049:1,2011-05-02T09:30:00Z,28.3507,-96.0058,2.0,26.5389,11111222 
TABS,ioos:station:wmo:42049:1,2011-05-02T10:00:00Z,28.3507,-96.0058,2.0,26.5031,11111222 
TABS,ioos:station:wmo:42049:1,2011-05-02T10:30:00Z,28.3507,-96.0058,2.0,26.4864,11111222 
TABS,ioos:station:wmo:42049:1,2011-05-02T11:00:00Z,28.3507,-96.0058,2.0,26.4218,11111222 
TABS,ioos:station:wmo:42049:1,2011-05-02T11:30:00Z,28.3507,-96.0058,2.0,26.3543,11111222 
TABS,ioos:station:wmo:42049:1,2011-05-02T12:00:00Z,28.3507,-96.0058,2.0,26.3146,11111222 
TABS,ioos:station:wmo:42049:1,2011-05-02T12:30:00Z,28.3507,-96.0058,2.0,26.2711,11111222 
TABS,ioos:station:wmo:42049:1,2011-05-02T13:00:00Z,28.3507,-96.0058,2.0,26.249,11111222 
TABS,ioos:station:wmo:42049:1,2011-05-02T13:30:00Z,28.3507,-96.0058,2.0,26.2648,11111222 
TABS,ioos:station:wmo:42049:1,2011-05-02T14:00:00Z,28.3507,-96.0058,2.0,26.2385,11111222 
TABS,ioos:station:wmo:42049:1,2011-05-02T14:30:00Z,28.3507,-96.0058,2.0,26.2551,11111222 
TABS,ioos:station:wmo:42049:1,2011-05-02T15:00:00Z,28.3507,-96.0058,2.0,26.2349,11111222 
TABS,ioos:station:wmo:42049:1,2011-05-02T15:30:00Z,28.3507,-96.0058,2.0,26.2201,11111222 
TABS,ioos:station:wmo:42049:1,2011-05-02T16:00:00Z,28.3507,-96.0058,2.0,26.2073,11111222 
TABS,ioos:station:wmo:42049:1,2011-05-02T16:30:00Z,28.3507,-96.0058,2.0,26.1978,11111222 
TABS,ioos:station:wmo:42049:1,2011-05-02T17:00:00Z,28.3507,-96.0058,2.0,26.1969,11111222 
TABS,ioos:station:wmo:42049:1,2011-05-02T17:30:00Z,28.3507,-96.0058,2.0,26.174,11111222 
TABS,ioos:station:wmo:42049:1,2011-05-02T18:00:00Z,28.3507,-96.0058,2.0,26.1317,11111222 
TABS,ioos:station:wmo:42049:1,2011-05-02T18:30:00Z,28.3507,-96.0058,2.0,26.0867,11111222 
TABS,ioos:station:wmo:42049:1,2011-05-02T19:00:00Z,28.3507,-96.0058,2.0,26.032,11111222 
TABS,ioos:station:wmo:42049:1,2011-05-02T19:30:00Z,28.3507,-96.0058,2.0,25.9942,11111222 
TABS,ioos:station:wmo:42049:1,2011-05-02T20:00:00Z,28.3507,-96.0058,2.0,25.9758,11111222 
TABS,ioos:station:wmo:42049:1,2011-05-02T20:30:00Z,28.3507,-96.0058,2.0,25.967,11111222 
TABS,ioos:station:wmo:42049:1,2011-05-02T21:00:00Z,28.3507,-96.0058,2.0,25.958,11111222 
TABS,ioos:station:wmo:42049:1,2011-05-02T21:30:00Z,28.3507,-96.0058,2.0,25.9406,11111222 
TABS,ioos:station:wmo:42049:1,2011-05-02T22:00:00Z,28.3507,-96.0058,2.0,25.9557,11111222 
TABS,ioos:station:wmo:42049:1,2011-05-02T22:30:00Z,28.3507,-96.0058,2.0,25.9428,11111222 
TABS,ioos:station:wmo:42049:1,2011-05-02T23:00:00Z,28.3507,-96.0058,2.0,25.9461,11111222 
TABS,ioos:station:wmo:42049:1,2011-05-02T23:30:00Z,28.3507,-96.0058,2.0,25.959,11111222 
TABS,ioos:station:wmo:42049:1,2011-05-03T00:00:00Z,28.3507,-96.0058,2.0,25.9348,11111222 
TABS,ioos:station:wmo:42049:1,2011-05-03T00:30:00Z,28.3507,-96.0058,2.0,25.954,11111222 
TABS,ioos:station:wmo:42049:1,2011-05-03T01:00:00Z,28.3507,-96.0058,2.0,25.9695,11111222 
TABS,ioos:station:wmo:42049:1,2011-05-03T01:30:00Z,28.3507,-96.0058,2.0,26.0196,11111222 
TABS,ioos:station:wmo:42049:1,2011-05-03T02:00:00Z,28.3507,-96.0058,2.0,26.0251,11111222 
TABS,ioos:station:wmo:42049:1,2011-05-03T02:30:00Z,28.3507,-96.0058,2.0,26.0574,11111222 
TABS,ioos:station:wmo:42049:1,2011-05-03T03:00:00Z,28.3507,-96.0058,2.0,26.1025,11111222 
TABS,ioos:station:wmo:42049:1,2011-05-03T03:30:00Z,28.3507,-96.0058,2.0,26.1261,11111222 
TABS,ioos:station:wmo:42049:1,2011-05-03T04:00:00Z,28.3507,-96.0058,2.0,26.1559,11111222 
TABS,ioos:station:wmo:42049:1,2011-05-03T04:30:00Z,28.3507,-96.0058,2.0,26.1657,11111222 
TABS,ioos:station:wmo:42049:1,2011-05-03T05:00:00Z,28.3507,-96.0058,2.0,26.1314,11111222 
TABS,ioos:station:wmo:42049:1,2011-05-03T05:30:00Z,28.3507,-96.0058,2.0,26.0874,11111222 
TABS,ioos:station:wmo:42049:1,2011-05-03T06:00:00Z,28.3507,-96.0058,2.0,25.9815,11111222 
TABS,ioos:station:wmo:42049:1,2011-05-03T06:30:00Z,28.3507,-96.0058,2.0,25.9349,11111222 
TABS,ioos:station:wmo:42049:1,2011-05-03T07:00:00Z,28.3507,-96.0058,2.0,25.9811,11111222 
TABS,ioos:station:wmo:42049:1,2011-05-03T07:30:00Z,28.3507,-96.0058,2.0,26.1764,11111222 
TABS,ioos:station:wmo:42049:1,2011-05-03T08:00:00Z,28.3507,-96.0058,2.0,26.4614,11111222 
TABS,ioos:station:wmo:42049:1,2011-05-03T08:30:00Z,28.3507,-96.0058,2.0,26.7112,11111222 
TABS,ioos:station:wmo:42049:1,2011-05-03T09:00:00Z,28.3507,-96.0058,2.0,26.8008,11111222 
TABS,ioos:station:wmo:42049:1,2011-05-03T09:30:00Z,28.3507,-96.0058,2.0,26.972,11111222 
TABS,ioos:station:wmo:42049:1,2011-05-03T10:00:00Z,28.3507,-96.0058,2.0,27.4606,11111222 
TABS,ioos:station:wmo:42049:1,2011-05-03T10:30:00Z,28.3507,-96.0058,2.0,27.8085,11111222 
TABS,ioos:station:wmo:42049:1,2011-05-03T11:00:00Z,28.3507,-96.0058,2.0,28.2351,11111222 
TABS,ioos:station:wmo:42049:1,2011-05-03T11:30:00Z,28.3507,-96.0058,2.0,29.1213,11111222 
TABS,ioos:station:wmo:42049:1,2011-05-03T12:00:00Z,28.3507,-96.0058,2.0,29.1763,11111222 
TABS,ioos:station:wmo:42049:1,2011-05-03T12:30:00Z,28.3507,-96.0058,2.0,28.8516,11111222 
TABS,ioos:station:wmo:42049:1,2011-05-03T13:00:00Z,28.3507,-96.0058,2.0,28.7915,11111222 
TABS,ioos:station:wmo:42049:1,2011-05-03T13:30:00Z,28.3507,-96.0058,2.0,28.3273,11111222 
TABS,ioos:station:wmo:42049:1,2011-05-03T14:00:00Z,28.3507,-96.0058,2.0,28.4837,11111222 
TABS,ioos:station:wmo:42049:1,2011-05-03T14:30:00Z,28.3507,-96.0058,2.0,28.3982,11111222 
TABS,ioos:station:wmo:42049:1,2011-05-03T15:00:00Z,28.3507,-96.0058,2.0,28.6346,11111222 
TABS,ioos:station:wmo:42049:1,2011-05-03T15:30:00Z,28.3507,-96.0058,2.0,28.7063,11111222 
TABS,ioos:station:wmo:42049:1,2011-05-03T16:00:00Z,28.3507,-96.0058,2.0,28.5059,11111222 
TABS,ioos:station:wmo:42049:1,2011-05-03T16:30:00Z,28.3507,-96.0058,2.0,28.0615,11111222 
TABS,ioos:station:wmo:42049:1,2011-05-03T17:00:00Z,28.3507,-96.0058,2.0,28.3529,11111222 
TABS,ioos:station:wmo:42049:1,2011-05-03T17:30:00Z,28.3507,-96.0058,2.0,28.2399,11111222 
TABS,ioos:station:wmo:42049:1,2011-05-03T18:00:00Z,28.3507,-96.0058,2.0,28.3333,11111222 
TABS,ioos:station:wmo:42049:1,2011-05-03T18:30:00Z,28.3507,-96.0058,2.0,27.883,11111222 
TABS,ioos:station:wmo:42049:1,2011-05-03T19:00:00Z,28.3507,-96.0058,2.0,28.0193,11111222 
TABS,ioos:station:wmo:42049:1,2011-05-03T19:30:00Z,28.3507,-96.0058,2.0,27.7974,11111222 
TABS,ioos:station:wmo:42049:1,2011-05-03T20:00:00Z,28.3507,-96.0058,2.0,27.8288,11111222 
TABS,ioos:station:wmo:42049:1,2011-05-03T20:30:00Z,28.3507,-96.0058,2.0,27.8806,11111222 
TABS,ioos:station:wmo:42049:1,2011-05-03T21:00:00Z,28.3507,-96.0058,2.0,27.8568,11111222 
TABS,ioos:station:wmo:42049:1,2011-05-03T21:30:00Z,28.3507,-96.0058,2.0,27.8996,11111222 
TABS,ioos:station:wmo:42049:1,2011-05-03T22:00:00Z,28.3507,-96.0058,2.0,27.9416,11111222 
TABS,ioos:station:wmo:42049:1,2011-05-03T22:30:00Z,28.3507,-96.0058,2.0,27.9808,11111222 
TABS,ioos:station:wmo:42049:1,2011-05-03T23:00:00Z,28.3507,-96.0058,2.0,27.8984,11111222 
TABS,ioos:station:wmo:42049:1,2011-05-03T23:30:00Z,28.3507,-96.0058,2.0,28.0801,11111222 
TABS,ioos:station:wmo:42049:1,2011-05-04T00:00:00Z,28.3507,-96.0058,2.0,27.952,11111222 
TABS,ioos:station:wmo:42049:1,2011-05-04T00:30:00Z,28.3507,-96.0058,2.0,28.0416,11111222 
TABS,ioos:station:wmo:42049:1,2011-05-04T01:00:00Z,28.3507,-96.0058,2.0,28.0774,11111222 
TABS,ioos:station:wmo:42049:1,2011-05-04T01:30:00Z,28.3507,-96.0058,2.0,28.2187,11111222 
TABS,ioos:station:wmo:42049:1,2011-05-04T02:00:00Z,28.3507,-96.0058,2.0,28.2678,11111222 
TABS,ioos:station:wmo:42049:1,2011-05-04T02:30:00Z,28.3507,-96.0058,2.0,28.368,11111222 
TABS,ioos:station:wmo:42049:1,2011-05-04T03:00:00Z,28.3507,-96.0058,2.0,28.365,11111222 
TABS,ioos:station:wmo:42049:1,2011-05-04T03:30:00Z,28.3507,-96.0058,2.0,28.453,11111222 
TABS,ioos:station:wmo:42049:1,2011-05-04T04:00:00Z,28.3507,-96.0058,2.0,28.4756,11111222 
TABS,ioos:station:wmo:42049:1,2011-05-04T04:30:00Z,28.3507,-96.0058,2.0,28.6068,11111222 
TABS,ioos:station:wmo:42049:1,2011-05-04T05:00:00Z,28.3507,-96.0058,2.0,28.6967,11111222 
TABS,ioos:station:wmo:42049:1,2011-05-04T05:30:00Z,28.3507,-96.0058,2.0,28.7462,11111222 
TABS,ioos:station:wmo:42049:1,2011-05-04T06:00:00Z,28.3507,-96.0058,2.0,28.7687,11111222 
TABS,ioos:station:wmo:42049:1,2011-05-04T07:30:00Z,28.3507,-96.0058,2.0,28.7866,11111222 
TABS,ioos:station:wmo:42049:1,2011-05-04T08:00:00Z,28.3507,-96.0058,2.0,28.7957,11111222 
TABS,ioos:station:wmo:42049:1,2011-05-04T08:30:00Z,28.3507,-96.0058,2.0,28.8927,11111222 
TABS,ioos:station:wmo:42049:1,2011-05-04T09:00:00Z,28.3507,-96.0058,2.0,28.9104,11111222 
TABS,ioos:station:wmo:42049:1,2011-05-04T09:30:00Z,28.3507,-96.0058,2.0,28.8768,11111222 
TABS,ioos:station:wmo:42049:1,2011-05-04T10:00:00Z,28.3507,-96.0058,2.0,28.8941,11111222 
TABS,ioos:station:wmo:42049:1,2011-05-04T10:30:00Z,28.3507,-96.0058,2.0,28.9759,11111222 
TABS,ioos:station:wmo:42049:1,2011-05-04T11:00:00Z,28.3507,-96.0058,2.0,29.0973,11111222 
TABS,ioos:station:wmo:42049:1,2011-05-04T11:30:00Z,28.3507,-96.0058,2.0,29.1779,11111222 
TABS,ioos:station:wmo:42049:1,2011-05-04T12:00:00Z,28.3507,-96.0058,2.0,29.2436,11111222 
TABS,ioos:station:wmo:42049:1,2011-05-04T12:30:00Z,28.3507,-96.0058,2.0,29.3086,11111222 
TABS,ioos:station:wmo:42049:1,2011-05-04T13:00:00Z,28.3507,-96.0058,2.0,29.3084,11111222 
TABS,ioos:station:wmo:42049:1,2011-05-04T13:30:00Z,28.3507,-96.0058,2.0,29.3491,11111222 
TABS,ioos:station:wmo:42049:1,2011-05-04T14:00:00Z,28.3507,-96.0058,2.0,29.1841,11111222 
TABS,ioos:station:wmo:42049:1,2011-05-04T14:30:00Z,28.3507,-96.0058,2.0,29.1003,11111222 
TABS,ioos:station:wmo:42049:1,2011-05-04T15:00:00Z,28.3507,-96.0058,2.0,29.1325,11111222 
TABS,ioos:station:wmo:42049:1,2011-05-04T15:30:00Z,28.3507,-96.0058,2.0,29.2516,11111222 
TABS,ioos:station:wmo:42049:1,2011-05-04T16:00:00Z,28.3507,-96.0058,2.0,29.2482,11111222 
TABS,ioos:station:wmo:42049:1,2011-05-04T16:30:00Z,28.3507,-96.0058,2.0,29.4204,11111222 
TABS,ioos:station:wmo:42049:1,2011-05-04T17:00:00Z,28.3507,-96.0058,2.0,29.5092,11111222 
TABS,ioos:station:wmo:42049:1,2011-05-04T17:30:00Z,28.3507,-96.0058,2.0,29.7641,11111222 
TABS,ioos:station:wmo:42049:1,2011-05-04T18:00:00Z,28.3507,-96.0058,2.0,29.841,11111222 
TABS,ioos:station:wmo:42049:1,2011-05-04T18:30:00Z,28.3507,-96.0058,2.0,29.9488,11111222 
TABS,ioos:station:wmo:42049:1,2011-05-04T19:00:00Z,28.3507,-96.0058,2.0,30.1247,11111222 
TABS,ioos:station:wmo:42049:1,2011-05-04T19:30:00Z,28.3507,-96.0058,2.0,30.0872,11111222 
TABS,ioos:station:wmo:42049:1,2011-05-04T20:00:00Z,28.3507,-96.0058,2.0,30.1516,11111222 
TABS,ioos:station:wmo:42049:1,2011-05-04T20:30:00Z,28.3507,-96.0058,2.0,30.2765,11111222 
TABS,ioos:station:wmo:42049:1,2011-05-04T21:00:00Z,28.3507,-96.0058,2.0,30.3852,11111222 
TABS,ioos:station:wmo:42049:1,2011-05-04T21:30:00Z,28.3507,-96.0058,2.0,30.5102,11111222 
TABS,ioos:station:wmo:42049:1,2011-05-04T22:00:00Z,28.3507,-96.0058,2.0,30.7044,11111222 
TABS,ioos:station:wmo:42049:1,2011-05-04T22:30:00Z,28.3507,-96.0058,2.0,30.7038,11111222 
TABS,ioos:station:wmo:42049:1,2011-05-04T23:00:00Z,28.3507,-96.0058,2.0,30.6321,11111222 
TABS,ioos:station:wmo:42049:1,2011-05-04T23:30:00Z,28.3507,-96.0058,2.0,30.5701,11111222 
TABS,ioos:station:wmo:42049:1,2011-05-05T00:00:00Z,28.3507,-96.0058,2.0,30.5218,11111222 
TABS,ioos:station:wmo:42049:1,2011-05-05T00:30:00Z,28.3507,-96.0058,2.0,30.3331,11111222 
TABS,ioos:station:wmo:42049:1,2011-05-05T01:00:00Z,28.3507,-96.0058,2.0,30.3026,11111222 
TABS,ioos:station:wmo:42049:1,2011-05-05T01:30:00Z,28.3507,-96.0058,2.0,30.2778,11111222 
TABS,ioos:station:wmo:42049:1,2011-05-05T02:00:00Z,28.3507,-96.0058,2.0,30.6953,11111222 
TABS,ioos:station:wmo:42049:1,2011-05-05T02:30:00Z,28.3507,-96.0058,2.0,30.6777,11111222 
TABS,ioos:station:wmo:42049:1,2011-05-05T03:00:00Z,28.3507,-96.0058,2.0,30.6929,11111222 
TABS,ioos:station:wmo:42049:1,2011-05-05T03:30:00Z,28.3507,-96.0058,2.0,30.6209,11111222 
TABS,ioos:station:wmo:42049:1,2011-05-05T04:00:00Z,28.3507,-96.0058,2.0,30.6514,11111222 
TABS,ioos:station:wmo:42049:1,2011-05-05T04:30:00Z,28.3507,-96.0058,2.0,30.7688,11111222 
TABS,ioos:station:wmo:42049:1,2011-05-05T05:00:00Z,28.3507,-96.0058,2.0,30.6654,11111222 
TABS,ioos:station:wmo:42049:1,2011-05-05T05:30:00Z,28.3507,-96.0058,2.0,30.5825,11111222 
TABS,ioos:station:wmo:42049:1,2011-05-05T06:00:00Z,28.3507,-96.0058,2.0,30.3431,11111222 
TABS,ioos:station:wmo:42049:1,2011-05-05T06:30:00Z,28.3507,-96.0058,2.0,30.1553,11111222 
TABS,ioos:station:wmo:42049:1,2011-05-05T07:00:00Z,28.3507,-96.0058,2.0,30.1253,11111222 
TABS,ioos:station:wmo:42049:1,2011-05-05T07:30:00Z,28.3507,-96.0058,2.0,30.2587,11111222 
TABS,ioos:station:wmo:42049:1,2011-05-05T08:00:00Z,28.3507,-96.0058,2.0,30.8703,11111222 
TABS,ioos:station:wmo:42049:1,2011-05-05T08:30:00Z,28.3507,-96.0058,2.0,30.0316,11111222 
TABS,ioos:station:wmo:42049:1,2011-05-05T09:00:00Z,28.3507,-96.0058,2.0,29.7101,11111222 
TABS,ioos:station:wmo:42049:1,2011-05-05T09:30:00Z,28.3507,-96.0058,2.0,29.6546,11111222 
TABS,ioos:station:wmo:42049:1,2011-05-05T10:00:00Z,28.3507,-96.0058,2.0,29.9473,11111222 
TABS,ioos:station:wmo:42049:1,2011-05-05T10:30:00Z,28.3507,-96.0058,2.0,30.526,11111222 
TABS,ioos:station:wmo:42049:1,2011-05-05T11:00:00Z,28.3507,-96.0058,2.0,31.8484,11111222 
TABS,ioos:station:wmo:42049:1,2011-05-05T11:30:00Z,28.3507,-96.0058,2.0,32.0011,11111222 
TABS,ioos:station:wmo:42049:1,2011-05-05T12:00:00Z,28.3507,-96.0058,2.0,32.0325,11111222 
TABS,ioos:station:wmo:42049:1,2011-05-05T12:30:00Z,28.3507,-96.0058,2.0,32.1602,11111222 
TABS,ioos:station:wmo:42049:1,2011-05-05T13:00:00Z,28.3507,-96.0058,2.0,32.2731,11111222 
TABS,ioos:station:wmo:42049:1,2011-05-05T13:30:00Z,28.3507,-96.0058,2.0,32.1623,11111222 
TABS,ioos:station:wmo:42049:1,2011-05-05T14:00:00Z,28.3507,-96.0058,2.0,32.2864,11111222 
TABS,ioos:station:wmo:42049:1,2011-05-05T14:30:00Z,28.3507,-96.0058,2.0,32.3509,11111222 
TABS,ioos:station:wmo:42049:1,2011-05-05T15:00:00Z,28.3507,-96.0058,2.0,32.1295,11111222 
TABS,ioos:station:wmo:42049:1,2011-05-05T15:30:00Z,28.3507,-96.0058,2.0,32.1416,11111222 
TABS,ioos:station:wmo:42049:1,2011-05-05T16:00:00Z,28.3507,-96.0058,2.0,32.3292,11111222 
TABS,ioos:station:wmo:42049:1,2011-05-05T16:30:00Z,28.3507,-96.0058,2.0,32.3689,11111222 
TABS,ioos:station:wmo:42049:1,2011-05-05T17:00:00Z,28.3507,-96.0058,2.0,32.0738,11111222 
TABS,ioos:station:wmo:42049:1,2011-05-05T17:30:00Z,28.3507,-96.0058,2.0,31.8728,11111222 
TABS,ioos:station:wmo:42049:1,2011-05-05T18:00:00Z,28.3507,-96.0058,2.0,31.8658,11111222 
TABS,ioos:station:wmo:42049:1,2011-05-05T18:30:00Z,28.3507,-96.0058,2.0,31.836,11111222 
TABS,ioos:station:wmo:42049:1,2011-05-05T19:00:00Z,28.3507,-96.0058,2.0,31.8237,11111222 
TABS,ioos:station:wmo:42049:1,2011-05-05T19:30:00Z,28.3507,-96.0058,2.0,31.8061,11111222 
TABS,ioos:station:wmo:42049:1,2011-05-05T20:00:00Z,28.3507,-96.0058,2.0,31.8233,11111222 
TABS,ioos:station:wmo:42049:1,2011-05-05T20:30:00Z,28.3507,-96.0058,2.0,31.6471,11111222 
TABS,ioos:station:wmo:42049:1,2011-05-05T21:00:00Z,28.3507,-96.0058,2.0,31.6681,11111222 
TABS,ioos:station:wmo:42049:1,2011-05-05T21:30:00Z,28.3507,-96.0058,2.0,31.6786,11111222 
TABS,ioos:station:wmo:42049:1,2011-05-05T22:00:00Z,28.3507,-96.0058,2.0,31.6564,11111222 
TABS,ioos:station:wmo:42049:1,2011-05-05T22:30:00Z,28.3507,-96.0058,2.0,31.5965,11111222 
TABS,ioos:station:wmo:42049:1,2011-05-05T23:00:00Z,28.3507,-96.0058,2.0,31.2277,11111222 
TABS,ioos:station:wmo:42049:1,2011-05-05T23:30:00Z,28.3507,-96.0058,2.0,31.0337,11111222 
TABS,ioos:station:wmo:42049:1,2011-05-06T00:00:00Z,28.3507,-96.0058,2.0,30.979,11111222 
TABS,ioos:station:wmo:42049:1,2011-05-06T00:30:00Z,28.3507,-96.0058,2.0,30.8639,11111222 
TABS,ioos:station:wmo:42049:1,2011-05-06T01:00:00Z,28.3507,-96.0058,2.0,30.8061,11111222 
TABS,ioos:station:wmo:42049:1,2011-05-06T01:30:00Z,28.3507,-96.0058,2.0,30.7417,11111222 
TABS,ioos:station:wmo:42049:1,2011-05-06T02:00:00Z,28.3507,-96.0058,2.0,30.7296,11111222 
TABS,ioos:station:wmo:42049:1,2011-05-06T02:30:00Z,28.3507,-96.0058,2.0,30.5061,11111222 
TABS,ioos:station:wmo:42049:1,2011-05-06T03:00:00Z,28.3507,-96.0058,2.0,30.3444,11111222 
TABS,ioos:station:wmo:42049:1,2011-05-06T03:30:00Z,28.3507,-96.0058,2.0,30.3205,11111222 
TABS,ioos:station:wmo:42049:1,2011-05-06T04:00:00Z,28.3507,-96.0058,2.0,30.1998,11111222 
TABS,ioos:station:wmo:42049:1,2011-05-06T04:30:00Z,28.3507,-96.0058,2.0,30.1478,11111222 
TABS,ioos:station:wmo:42049:1,2011-05-06T05:00:00Z,28.3507,-96.0058,2.0,30.0133,11111222 
TABS,ioos:station:wmo:42049:1,2011-05-06T05:30:00Z,28.3507,-96.0058,2.0,29.938,11111222 
TABS,ioos:station:wmo:42049:1,2011-05-06T06:00:00Z,28.3507,-96.0058,2.0,29.8573,11111222 
TABS,ioos:station:wmo:42049:1,2011-05-06T06:30:00Z,28.3507,-96.0058,2.0,29.8885,11111222 
TABS,ioos:station:wmo:42049:1,2011-05-06T07:00:00Z,28.3507,-96.0058,2.0,29.8252,11111222 
TABS,ioos:station:wmo:42049:1,2011-05-06T07:30:00Z,28.3507,-96.0058,2.0,29.836,11111222 
TABS,ioos:station:wmo:42049:1,2011-05-06T08:00:00Z,28.3507,-96.0058,2.0,29.7923,11111222 
TABS,ioos:station:wmo:42049:1,2011-05-06T08:30:00Z,28.3507,-96.0058,2.0,29.8422,11111222 
TABS,ioos:station:wmo:42049:1,2011-05-06T09:00:00Z,28.3507,-96.0058,2.0,29.8786,11111222 
TABS,ioos:station:wmo:42049:1,2011-05-06T09:30:00Z,28.3507,-96.0058,2.0,29.8819,11111222 
TABS,ioos:station:wmo:42049:1,2011-05-06T10:00:00Z,28.3507,-96.0058,2.0,29.8088,11111222 
TABS,ioos:station:wmo:42049:1,2011-05-06T10:30:00Z,28.3507,-96.0058,2.0,29.7698,11111222 
TABS,ioos:station:wmo:42049:1,2011-05-06T11:00:00Z,28.3507,-96.0058,2.0,29.7904,11111222 
TABS,ioos:station:wmo:42049:1,2011-05-06T11:30:00Z,28.3507,-96.0058,2.0,29.7489,11111222 
TABS,ioos:station:wmo:42049:1,2011-05-06T12:00:00Z,28.3507,-96.0058,2.0,29.7055,11111222 
TABS,ioos:station:wmo:42049:1,2011-05-06T12:30:00Z,28.3507,-96.0058,2.0,29.6474,11111222 
TABS,ioos:station:wmo:42049:1,2011-05-06T13:00:00Z,28.3507,-96.0058,2.0,29.5611,11111222 
TABS,ioos:station:wmo:42049:1,2011-05-06T13:30:00Z,28.3507,-96.0058,2.0,29.5678,11111222 